Wind_Speed
37 38 41 43 45 47 48 48 47 46 46 46 46 46 47 48 50 51 52 54 55 56 57 58 58 59 57 55 56 57 56 56 58 56 52 51 55 54 51 58 47 50 51
43 44 42 44 46 44 42 42 44 44 44 45 45 45 45 47 49 52 53 53 55 58 61 64 65 66 66 64 61 59 60 59 60 62 58 57 54 58 55 63 61 57 48
42 41 40 44 41 38 40 41 40 38 37 38 39 40 43 45 46 48 51 58 63 67 69 70 70 72 74 74 71 66 65 64 63 63 62 60 60 59 56 56 57 54 54
38 38 38 34 33 34 36 34 34 33 33 34 37 38 39 43 47 53 59 65 72 76 79 78 76 73 74 74 77 77 74 72 71 69 70 67 65 63 61 64 61 58 49
31 27 27 33 34 33 32 31 32 33 32 33 33 37 40 45 54 62 68 75 72 64 59 62 61 60 58 57 58 62 68 74 75 76 74 73 73 71 68 67 65 68 60
33 31 31 31 32 32 30 29 32 32 30 28 29 34 41 51 57 62 73 55 51 48 46 48 49 47 46 45 46 51 58 68 71 73 76 75 75 77 75 72 71 71 68
33 34 38 36 32 32 33 31 30 31 27 27 30 35 42 48 55 68 52 46 41 43 48 45 43 41 40 41 41 40 41 51 58 68 72 74 77 78 80 79 78 75 70
35 31 31 36 34 32 33 32 31 29 25 27 29 33 42 45 54 57 42 37 41 46 45 42 40 36 33 32 34 35 38 37 41 46 51 56 64 76 77 80 81 78 72
43 38 32 31 33 33 35 31 29 27 26 27 29 33 41 43 51 51 43 39 43 44 44 36 35 32 29 28 27 33 35 31 32 36 35 31 33 42 52 66 66 65 66
41 41 35 36 31 34 36 32 29 28 27 27 29 32 39 42 48 49 42 40 41 45 43 33 33 31 30 30 29 25 24 27 28 27 26 25 25 29 31 29 34 34 37
47 46 38 39 34 34 34 34 30 29 30 28 28 31 37 43 46 43 40 34 36 39 37 31 26 28 25 23 22 23 24 20 24 26 20 24 18 25 32 35 36 39 41
42 40 36 39 35 35 35 36 32 30 30 28 29 31 37 40 42 37 38 35 33 31 32 20 16 12 11 10 12 14 10 8 6 9 21 17 15 19 18 21 27 28 23
44 39 38 39 35 38 36 38 33 30 29 25 26 28 32 36 39 37 36 35 29 25 23 13 11 12 9 12 6 7 5 4 2 5 7 6 7 7 5 6 9 11 14
53 46 41 40 40 38 37 39 36 32 31 26 25 26 30 36 37 36 36 34 26 25 21 16 16 19 16 8 7 6 5 3 1 3 8 7 6 9 14 15 15 13 12
44 43 43 45 43 39 38 40 37 33 33 30 27 24 27 32 34 32 32 32 30 26 24 24 21 14 9 13 17 18 21 25 24 24 24 23 22 20 17 15 13 12 10
45 42 53 52 48 51 46 42 38 34 37 31 27 25 24 27 30 27 26 28 30 26 22 16 7 5 9 16 21 22 20 19 16 13 11 9 8 7 6 5 5 6 8
45 44 47 46 45 41 41 42 39 36 37 32 29 27 24 24 24 24 22 21 22 19 14 8 8 10 12 14 12 11 11 10 8 6 6 8 9 9 10 9 7 9 12
42 41 42 50 47 39 39 41 40 36 35 32 30 28 25 24 21 22 17 18 15 15 12 8 0 6 7 7 6 7 6 5 5 7 10 10 10 11 13 14 16 17 18
56 53 41 45 40 37 39 36 36 37 34 32 32 28 28 25 21 21 18 16 15 12 11 10 9 3 1 1 3 4 1 2 4 7 9 10 11 12 14 17 20 23 25
39 35 36 37 36 36 37 37 36 35 33 31 31 32 32 28 26 24 20 18 19 16 13 11 8 10 10 9 10 9 7 7 9 11 13 12 14 16 18 20 22 24 28
37 34 35 33 32 37 41 38 35 35 34 29 32 36 37 35 29 26 23 21 22 23 21 19 17 13 13 14 14 14 14 15 15 15 14 17 20 22 24 25 27 32 34
41 35 32 33 31 34 34 35 35 37 34 33 36 37 39 39 35 31 29 26 29 28 28 26 25 23 21 20 21 21 21 22 24 23 23 25 25 26 29 32 33 33 33
35 37 34 23 27 32 33 32 33 44 43 42 41 40 42 41 42 41 37 36 35 32 32 32 30 28 27 26 28 30 30 28 30 32 31 28 28 29 31 32 31 33 35
31 31 39 44 37 30 38 44 50 48 49 50 49 47 46 47 46 45 41 41 44 39 36 34 34 34 34 33 31 33 32 32 32 35 36 34 33 34 34 31 34 38 43
23 28 36 40 36 35 41 47 45 56 54 56 54 46 45 47 48 45 42 42 45 45 44 42 38 37 37 38 38 36 37 36 35 34 35 37 37 34 37 36 38 43 45
21 27 31 34 36 37 39 37 39 44 48 50 51 50 51 49 50 49 51 51 49 49 54 53 51 48 44 42 38 32 31 34 37 36 34 36 38 39 36 39 42 47 47
Wind_Direction
277 274 277 278 278 278 282 283 283 282 281 281 281 281 282 283 285 287 289 289 289 287 285 282 280 279 275 271 269 267 264 263 263 261 258 255 252 254 256 256 252 254 251
276 277 278 277 277 281 280 281 281 280 280 279 281 282 285 287 289 290 289 288 289 287 283 281 278 276 275 272 267 264 264 261 260 259 257 253 252 252 250 252 255 259 246
279 281 279 278 283 283 281 280 279 279 280 280 282 285 289 289 288 288 289 292 292 292 291 286 280 274 270 268 267 265 260 260 259 259 258 256 252 249 247 248 256 257 253
284 281 282 280 283 286 282 280 280 280 280 283 286 287 290 295 299 302 302 298 295 292 288 286 284 281 274 269 265 261 257 256 257 255 255 255 255 252 248 244 246 247 248
292 280 281 283 288 288 281 281 281 282 283 285 288 293 300 310 310 305 306 301 300 297 292 289 284 279 276 269 263 258 255 253 252 250 251 252 253 252 250 247 248 252 245
282 277 284 294 291 286 282 280 282 282 281 287 296 308 312 312 308 311 313 306 302 300 299 295 289 281 278 273 265 255 246 244 243 244 246 247 248 248 248 247 245 248 250
280 273 277 282 293 284 281 282 282 279 281 292 301 311 315 313 318 319 309 303 307 304 297 292 293 285 276 272 268 261 256 251 254 251 247 243 244 245 246 246 245 246 248
280 274 281 275 284 279 280 279 278 276 280 290 298 310 315 321 324 322 307 307 305 305 307 288 290 288 278 273 269 260 264 263 259 256 257 255 253 247 247 248 247 247 247
275 277 282 277 276 272 277 270 269 270 274 282 296 312 319 323 327 330 312 310 317 318 312 291 294 286 283 281 270 273 264 267 256 259 256 254 261 261 256 253 251 254 254
267 272 274 279 279 271 274 268 261 265 273 279 300 308 318 318 328 337 317 307 312 312 319 301 289 289 284 272 269 275 272 264 273 256 254 250 263 234 228 234 234 244 246
262 264 266 272 267 266 270 265 257 261 273 280 297 305 315 324 330 337 331 321 321 317 320 317 300 293 294 288 280 279 267 277 267 258 240 264 253 222 231 229 227 232 230
253 259 269 267 266 259 266 261 255 259 268 282 294 298 310 317 330 337 336 333 323 323 334 339 328 310 296 293 281 274 275 274 290 273 260 273 269 259 246 245 244 242 252
250 261 263 266 265 257 263 259 253 256 264 276 293 302 313 319 329 335 342 340 334 337 348 350 35 45 53 56 60 50 69 96 222 247 235 251 250 248 237 260 262 247 240
261 256 260 263 260 255 260 256 251 252 259 267 284 296 309 316 327 330 341 349 345 349 353 356 31 45 57 40 23 41 53 52 80 269 242 241 209 183 173 167 158 144 161
246 245 250 256 253 250 253 251 249 251 257 263 277 286 306 311 320 326 336 347 348 356 3 13 26 46 110 120 115 109 108 96 96 87 74 69 62 55 47 43 34 19 5
241 239 259 256 257 259 249 251 248 249 254 262 270 280 296 307 313 321 329 344 347 351 8 16 34 116 110 80 69 66 65 69 75 76 71 66 62 49 27 13 348 320 310
241 243 254 247 254 253 246 244 245 249 254 259 265 274 284 296 302 311 319 335 344 346 349 20 64 74 76 78 80 78 76 73 66 56 32 14 360 347 335 330 327 327 321
240 224 237 249 244 242 242 243 248 249 253 257 264 269 274 285 287 297 304 311 329 337 330 323 298 113 102 95 83 66 50 33 9 350 347 341 332 332 335 335 333 328 319
224 228 230 241 237 235 241 245 250 250 251 256 264 264 267 272 272 279 283 286 295 310 317 311 297 298 261 217 150 135 125 300 295 300 309 313 318 319 312 314 313 311 308
210 211 224 233 240 245 245 242 248 252 250 253 261 262 262 263 261 264 273 266 272 270 277 290 291 283 262 258 267 275 265 261 268 274 283 290 296 297 297 304 304 302 304
211 222 216 231 230 249 251 246 249 253 251 253 259 260 258 257 254 254 258 265 261 262 258 254 263 262 258 256 256 257 259 263 264 267 272 279 285 289 292 296 297 302 307
240 217 221 235 239 250 248 248 252 253 251 253 254 259 259 252 251 249 252 258 261 258 257 258 255 258 261 266 263 259 261 267 273 276 279 283 282 285 292 294 294 296 298
233 234 235 232 243 257 244 256 267 256 250 248 248 251 257 256 253 249 244 245 251 253 255 257 259 260 258 258 262 268 271 272 274 277 278 277 281 290 292 290 289 293 300
240 245 242 242 251 254 248 264 256 271 258 248 254 255 247 252 251 252 248 248 250 248 248 252 254 256 257 258 258 262 266 266 267 273 278 282 280 284 284 286 293 294 295
225 236 241 243 247 249 249 254 251 265 258 261 260 262 261 255 253 250 248 254 248 245 247 248 249 251 255 259 263 268 264 261 265 268 274 279 277 280 284 284 288 292 294
226 231 237 244 249 251 252 251 257 257 253 260 260 260 255 257 254 247 251 255 256 252 248 250 253 255 252 253 259 269 272 283 272 265 268 270 272 274 278 290 297 297 300
Height
5796 5794 5793 5791 5789 5786 5784 5782 5780 5778 5777 5774 5772 5772 5770 5768 5766 5763 5761 5759 5756 5753 5751 5749 5746 5744 5744 5744 5745 5746 5747 5747 5750 5754 5756 5759 5762 5766 5768 5771 5773 5775 5776
5785 5782 5781 5779 5776 5774 5772 5770 5768 5767 5765 5762 5761 5759 5758 5756 5754 5751 5747 5744 5740 5737 5734 5731 5729 5727 5725 5725 5727 5728 5729 5731 5731 5733 5737 5741 5745 5750 5751 5754 5757 5760 5763
5773 5771 5769 5766 5764 5762 5761 5758 5756 5755 5753 5752 5751 5748 5747 5744 5741 5738 5734 5729 5723 5717 5712 5708 5705 5703 5703 5703 5704 5706 5708 5709 5711 5712 5716 5721 5725 5731 5733 5737 5739 5742 5747
5759 5757 5757 5756 5754 5752 5750 5747 5746 5744 5743 5742 5741 5739 5736 5733 5729 5723 5718 5710 5702 5695 5688 5682 5677 5673 5673 5675 5677 5679 5683 5685 5688 5692 5694 5700 5703 5710 5713 5718 5723 5727 5729
5748 5747 5747 5746 5744 5742 5740 5739 5737 5736 5735 5733 5732 5729 5726 5721 5714 5706 5697 5687 5677 5668 5662 5656 5652 5649 5648 5647 5648 5651 5655 5657 5662 5668 5672 5677 5682 5687 5692 5699 5703 5706 5709
5740 5739 5737 5735 5733 5732 5731 5729 5729 5728 5727 5725 5723 5720 5715 5709 5700 5690 5676 5665 5658 5652 5646 5638 5634 5631 5630 5627 5627 5628 5630 5632 5634 5641 5648 5653 5658 5663 5667 5675 5680 5685 5691
5730 5730 5728 5727 5724 5723 5722 5720 5719 5719 5718 5717 5714 5710 5704 5697 5686 5673 5661 5655 5648 5640 5633 5627 5621 5617 5615 5613 5613 5613 5614 5617 5617 5618 5624 5630 5636 5642 5648 5652 5656 5662 5672
5719 5719 5718 5718 5716 5715 5714 5712 5710 5710 5710 5707 5705 5700 5694 5687 5677 5662 5652 5645 5638 5628 5619 5613 5609 5606 5603 5602 5603 5604 5603 5603 5606 5608 5611 5615 5617 5621 5625 5630 5634 5644 5652
5708 5708 5708 5707 5705 5705 5705 5704 5703 5702 5701 5699 5696 5690 5685 5678 5667 5654 5644 5636 5628 5617 5608 5600 5597 5595 5594 5594 5593 5592 5591 5592 5595 5598 5600 5602 5603 5606 5610 5615 5621 5628 5632
5695 5695 5697 5697 5694 5695 5695 5695 5694 5694 5693 5690 5686 5682 5676 5669 5657 5645 5636 5628 5620 5610 5601 5592 5588 5586 5585 5584 5584 5584 5584 5583 5584 5587 5589 5592 5593 5595 5600 5605 5610 5615 5622
5681 5682 5684 5685 5683 5684 5685 5685 5684 5684 5684 5682 5678 5675 5669 5662 5651 5640 5630 5621 5613 5604 5594 5585 5580 5579 5577 5577 5577 5577 5577 5576 5576 5579 5582 5585 5586 5587 5594 5598 5601 5607 5613
5665 5670 5671 5673 5672 5673 5674 5675 5675 5675 5675 5672 5670 5667 5662 5656 5646 5636 5627 5617 5609 5600 5590 5583 5578 5574 5572 5572 5572 5572 5572 5573 5575 5577 5581 5582 5583 5586 5590 5594 5597 5600 5605
5652 5655 5658 5659 5659 5662 5663 5665 5665 5666 5666 5663 5662 5659 5655 5650 5643 5635 5625 5616 5607 5599 5590 5586 5581 5575 5572 5572 5572 5572 5573 5574 5576 5578 5580 5582 5584 5586 5588 5591 5594 5597 5599
5636 5641 5644 5646 5647 5650 5652 5655 5656 5656 5657 5654 5654 5652 5650 5645 5640 5632 5624 5615 5608 5601 5593 5587 5583 5579 5575 5575 5576 5575 5576 5577 5579 5581 5583 5585 5586 5587 5589 5591 5592 5595 5598
5621 5625 5630 5634 5636 5638 5641 5644 5646 5647 5648 5646 5646 5646 5644 5641 5636 5630 5624 5616 5609 5602 5595 5588 5586 5584 5583 5584 5583 5583 5583 5583 5583 5583 5584 5585 5587 5589 5592 5594 5596 5597 5599
5606 5610 5616 5618 5623 5626 5628 5632 5636 5635 5638 5638 5638 5639 5638 5636 5632 5626 5621 5615 5609 5602 5597 5593 5591 5592 5591 5590 5589 5588 5587 5587 5588 5589 5590 5591 5593 5594 5595 5596 5598 5600 5600
5592 5598 5601 5606 5610 5614 5617 5622 5625 5625 5629 5628 5629 5630 5631 5630 5627 5621 5618 5614 5610 5606 5602 5597 5596 5595 5593 5592 5592 5591 5591 5592 5592 5593 5593 5594 5594 5594 5596 5597 5598 5598 5597
5579 5582 5589 5595 5600 5603 5607 5612 5614 5616 5619 5620 5620 5622 5623 5623 5621 5617 5613 5613 5609 5606 5604 5601 5597 5594 5594 5593 5593 5593 5593 5594 5594 5595 5595 5594 5594 5595 5594 5593 5593 5593 5593
5565 5573 5576 5584 5588 5592 5597 5601 5604 5607 5609 5610 5610 5613 5613 5615 5614 5611 5608 5607 5607 5605 5603 5602 5600 5597 5596 5594 5590 5589 5590 5591 5592 5592 5592 5591 5591 5591 5591 5591 5591 5590 5588
5551 5561 5569 5573 5577 5581 5586 5590 5594 5596 5597 5599 5601 5604 5603 5606 5606 5604 5602 5601 5600 5599 5599 5599 5598 5597 5595 5594 5594 5593 5590 5588 5588 5589 5589 5589 5588 5588 5588 5587 5585 5584 5581
5539 5548 5555 5560 5566 5572 5576 5579 5582 5584 5586 5587 5590 5592 5593 5593 5596 5595 5594 5594 5594 5592 5590 5590 5592 5591 5591 5591 5589 5589 5589 5588 5585 5584 5584 5584 5584 5583 5581 5580 5578 5575 5571
5533 5541 5548 5553 5557 5561 5564 5567 5570 5572 5574 5575 5578 5579 5581 5582 5584 5585 5585 5585 5585 5585 5583 5583 5583 5584 5585 5585 5585 5585 5584 5583 5581 5580 5580 5579 5577 5576 5575 5572 5570 5566 5563
5530 5535 5538 5542 5546 5550 5554 5556 5558 5560 5561 5562 5563 5565 5567 5569 5571 5572 5571 5572 5574 5575 5575 5574 5575 5575 5576 5576 5576 5577 5577 5577 5575 5574 5573 5572 5571 5569 5567 5565 5562 5559 5556
5521 5524 5528 5533 5536 5539 5542 5544 5544 5545 5547 5548 5549 5549 5550 5553 5555 5558 5558 5559 5561 5563 5564 5564 5564 5565 5566 5567 5566 5566 5567 5568 5566 5565 5564 5565 5563 5561 5558 5556 5553 5550 5546
5515 5519 5522 5526 5527 5528 5530 5531 5532 5532 5530 5533 5535 5536 5536 5538 5539 5541 5543 5545 5547 5548 5551 5552 5552 5552 5553 5555 5556 5556 5556 5556 5557 5556 5556 5556 5555 5553 5551 5548 5545 5541 5536
5508 5510 5513 5514 5515 5516 5516 5516 5517 5518 5519 5519 5520 5521 5522 5522 5524 5525 5527 5528 5531 5533 5535 5536 5538 5539 5540 5542 5544 5545 5546 5545 5545 5545 5545 5544 5545 5544 5543 5539 5535 5531 5526